Time,TemperatureF,DewpointF,PressureIn,WindDirection,WindDirectionDegrees,WindSpeedMPH,WindSpeedGustMPH,Humidity,HourlyPrecipIn,Conditions,Clouds,dailyrainin,SoftwareType,DateUTC
2014-08-27 00:07:00,78.8,71.0,29.93,East,94,0.0,5.0,77,0.00,,,0.00,weatherlink.com 1.10,2014-08-27 04:07:00,
2014-08-27 00:22:00,78.4,71.0,29.94,ENE,65,0.0,3.0,78,0.00,,,0.00,weatherlink.com 1.10,2014-08-27 04:22:00,
2014-08-27 00:37:00,77.9,71.0,29.93,NNE,28,0.0,4.0,79,0.00,,,0.00,weatherlink.com 1.10,2014-08-27 04:37:00,
2014-08-27 00:52:00,77.4,71.0,29.93,NNE,32,0.0,3.0,80,0.00,,,0.00,weatherlink.com 1.10,2014-08-27 04:52:00,
2014-08-27 01:07:00,76.6,71.0,29.93,NNE,32,0.0,0.0,82,0.00,,,0.00,weatherlink.com 1.10,2014-08-27 05:07:00,
2014-08-27 01:22:00,75.6,71.0,29.93,NNE,32,0.0,0.0,84,0.00,,,0.00,weatherlink.com 1.10,2014-08-27 05:22:00,
2014-08-27 01:37:00,74.8,70.0,29.93,NNE,32,0.0,0.0,86,0.00,,,0.00,weatherlink.com 1.10,2014-08-27 05:37:00,
2014-08-27 01:52:00,73.9,70.0,29.93,NNE,32,0.0,0.0,88,0.00,,,0.00,weatherlink.com 1.10,2014-08-27 05:52:00,
2014-08-27 02:07:00,73.3,70.0,29.92,NNE,32,0.0,0.0,90,0.00,,,0.00,weatherlink.com 1.10,2014-08-27 06:07:00,
2014-08-27 02:22:00,72.7,70.0,29.92,NNE,32,0.0,0.0,90,0.00,,,0.00,weatherlink.com 1.10,2014-08-27 06:22:00,
2014-08-27 02:37:00,72.3,70.0,29.92,NNE,32,0.0,0.0,91,0.00,,,0.00,weatherlink.com 1.10,2014-08-27 06:37:00,
2014-08-27 02:52:00,72.3,70.0,29.92,NE,56,0.0,2.0,91,0.00,,,0.00,weatherlink.com 1.10,2014-08-27 06:52:00,
2014-08-27 03:07:00,72.3,70.0,29.92,NE,55,0.0,2.0,92,0.00,,,0.00,weatherlink.com 1.10,2014-08-27 07:07:00,
2014-08-27 03:22:00,72.4,70.0,29.91,NNW,344,0.0,3.0,91,0.00,,,0.00,weatherlink.com 1.10,2014-08-27 07:22:00,
2014-08-27 03:37:00,72.4,70.0,29.91,NNW,344,0.0,2.0,91,0.00,,,0.00,weatherlink.com 1.10,2014-08-27 07:37:00,
2014-08-27 03:52:00,72.6,70.0,29.91,NNE,26,1.0,3.0,91,0.00,,,0.00,weatherlink.com 1.10,2014-08-27 07:52:00,
2014-08-27 04:07:00,72.8,70.0,29.91,NNE,27,1.0,3.0,92,0.00,,,0.00,weatherlink.com 1.10,2014-08-27 08:07:00,
2014-08-27 04:22:00,72.7,70.0,29.91,NNE,27,0.0,2.0,92,0.00,,,0.00,weatherlink.com 1.10,2014-08-27 08:22:00,
2014-08-27 04:37:00,72.6,70.0,29.91,NNE,27,0.0,2.0,92,0.00,,,0.00,weatherlink.com 1.10,2014-08-27 08:37:00,
2014-08-27 04:52:00,72.5,70.0,29.91,ENE,59,0.0,3.0,92,0.00,,,0.00,weatherlink.com 1.10,2014-08-27 08:52:00,
2014-08-27 05:07:00,72.6,70.0,29.91,ENE,71,0.0,3.0,92,0.00,,,0.00,weatherlink.com 1.10,2014-08-27 09:07:00,
2014-08-27 05:22:00,72.5,70.0,29.91,North,11,1.0,3.0,92,0.00,,,0.00,weatherlink.com 1.10,2014-08-27 09:22:00,
2014-08-27 05:37:00,72.5,70.0,29.92,NNE,17,0.0,0.0,92,0.00,,,0.00,weatherlink.com 1.10,2014-08-27 09:37:00,
2014-08-27 05:52:00,72.2,70.0,29.92,NNE,31,0.0,2.0,93,0.00,,,0.00,weatherlink.com 1.10,2014-08-27 09:52:00,
2014-08-27 06:07:00,72.1,70.0,29.92,North,355,1.0,3.0,94,0.00,,,0.00,weatherlink.com 1.10,2014-08-27 10:07:00,
2014-08-27 06:22:00,72.2,70.0,29.93,ENE,69,1.0,2.0,94,0.00,,,0.00,weatherlink.com 1.10,2014-08-27 10:22:00,
2014-08-27 06:37:00,72.5,71.0,29.93,East,80,0.0,7.0,94,0.00,,,0.00,weatherlink.com 1.10,2014-08-27 10:37:00,
2014-08-27 06:52:00,72.6,71.0,29.93,ENE,59,0.0,2.0,94,0.00,,,0.00,weatherlink.com 1.10,2014-08-27 10:52:00,